Tracking 19219 objects as of 22-Jul-2018
HD Live streaming from Space Station
objects crossing your sky now

FENGYUN 1C DEB

Track FENGYUN 1C DEB now!
10-day predictions


NORAD ID: 33731
Int'l Code: 1999-025DHU
Perigee: 843.9 km
Apogee: 1,052.1 km
Inclination: 99.3 °
Period: 103.9 minutes
Semi major axis: 7319 km
RCS: 0.0076 m2 (small)
Launch date: May 10, 1999
Source: People's Republic of China (PRC)
Launch site: Taiyaun Space Center, China (TSC)

Note: This is SATELLITE DEBRIS
aabbcc
Your satellite tracking list
Your tracking list is empty




NASA's NSSDC Master Catalog

Two Line Element Set (TLE):
1 33731U 99025DHU 18202.36029135  .00000305  00000-0  27754-3 0  9990
2 33731  99.3299 159.4104 0142208  93.8182  57.4690 13.86509154529944
Source of the keplerian elements: AFSPC